Voltar ao catálogo

TAURUS R/B

AtivoSSO
NORAD 26103·ROCKET BODY·🇺🇸 United States

Lançado Mar 12, 2000 de Vandenberg Space Force Base

Loading…

Próximas Passagens (próximas 24 horas)

TLE

AtualizadoSource: Space-Track

Época: Sep 14, 2026, 07:34 UTC

1 26103U 00014B   26257.31561387  .00009247  00000-0  20938-3 0  9990
2 26103  97.4269 194.7946 0014751   6.7111 353.4331 15.43234916459171

Acompanhe TAURUS R/B em tempo real com AllMySat

Download on the App Store